Epoch 2006 Dec. 11.0 TT = JDT 2454080.5 T 2006 Dec. 11.21544 TT Rudenko q 2.9893019 (2000.0) P Q z -0.0003247 Peri. 282.13015 +0.22296287 +0.96951422 +/-0.0000950 Node 5.89067 +0.28095557 +0.03592573 e 1.0009706 Incl. 82.01446 -0.93346212 +0.24238713 From 45 observations 2007 Aug. 21-Nov. 10, mean residual 0".6.
m1 = 11.0 + 5 logΔ + 10.0 log r